• In Netherlands
  • List of Countries
  • For 7 days
  • Water Temperature
  • Satellite Maps
  • Weather Map
  • Weather Widgets
  • user-avatar
    Login

    Hourly Weather Haradok

    Today, 27 May, Saturday

    Time Temperature Precipitation Wind Pressure Humidity
    00:00 +8°C° 0 mm 3 mps 748 mmHg 90%
    01:00 +8°C° 0 mm 3 mps 748 mmHg 90%
    02:00 +7°C° 0 mm 2 mps 749 mmHg 91%
    03:00 +7°C° 0 mm 2 mps 749 mmHg 90%
    04:00 +8°C° 0 mm 2 mps 749 mmHg 89%
    05:00 +8°C° 0 mm 2 mps 750 mmHg 89%
    06:00 +10°C° 0 mm 2 mps 750 mmHg 83%
    07:00 +13°C° 0 mm 2 mps 750 mmHg 78%
    08:00 +14°C° 0 mm 3 mps 750 mmHg 71%
    09:00 +16°C° 0.2 mm 3 mps 750 mmHg 68%
    10:00 +17°C° 0.2 mm 4 mps 750 mmHg 64%
    11:00 +17°C° 0.2 mm 4 mps 751 mmHg 60%
    12:00 +18°C° 0.1 mm 4 mps 751 mmHg 59%
    13:00 +18°C° 0.1 mm 4 mps 751 mmHg 58%
    14:00 +19°C° 0 mm 4 mps 751 mmHg 58%
    15:00 +18°C° 0.1 mm 4 mps 751 mmHg 60%
    16:00 +18°C° 0.1 mm 4 mps 751 mmHg 63%
    17:00 +18°C° 0.1 mm 4 mps 750 mmHg 65%
    18:00 +15°C° 0 mm 4 mps 750 mmHg 71%
    19:00 +14°C° 0 mm 3 mps 751 mmHg 77%
    20:00 +13°C° 0 mm 3 mps 751 mmHg 82%
    21:00 +12°C° 0 mm 3 mps 751 mmHg 84%
    22:00 +12°C° 0 mm 3 mps 750 mmHg 86%
    23:00 +11°C° 0 mm 3 mps 750 mmHg 88%

    Tomorrow, 28 May, Sunday

    Time Temperature Precipitation Wind Pressure Humidity
    00:00 +11°C° 0 mm 3 mps 750 mmHg 88%
    01:00 +10°C° 0 mm 3 mps 750 mmHg 88%
    02:00 +10°C° 0 mm 3 mps 750 mmHg 87%
    03:00 +10°C° 0 mm 4 mps 750 mmHg 87%
    04:00 +10°C° 0 mm 4 mps 750 mmHg 87%
    05:00 +10°C° 0 mm 4 mps 750 mmHg 87%
    06:00 +12°C° 0 mm 4 mps 751 mmHg 84%
    07:00 +13°C° 0 mm 4 mps 751 mmHg 81%
    08:00 +14°C° 0 mm 4 mps 751 mmHg 78%
    09:00 +17°C° 0 mm 4 mps 751 mmHg 74%
    10:00 +18°C° 0 mm 4 mps 751 mmHg 71%
    11:00 +19°C° 0 mm 4 mps 751 mmHg 67%
    12:00 +20°C° 0 mm 4 mps 751 mmHg 67%
    13:00 +20°C° 0 mm 4 mps 751 mmHg 67%
    14:00 +21°C° 0 mm 3 mps 751 mmHg 67%
    15:00 +21°C° 0.1 mm 3 mps 751 mmHg 67%
    16:00 +21°C° 0.1 mm 3 mps 751 mmHg 68%
    17:00 +22°C° 0.1 mm 3 mps 750 mmHg 69%
    18:00 +20°C° 0.2 mm 3 mps 750 mmHg 74%
    19:00 +19°C° 0.2 mm 3 mps 749 mmHg 80%
    20:00 +18°C° 0.2 mm 3 mps 749 mmHg 86%
    21:00 +17°C° 0 mm 4 mps 749 mmHg 88%
    22:00 +17°C° 0 mm 4 mps 749 mmHg 90%
    23:00 +15°C° 0 mm 4 mps 748 mmHg 92%

    Day after tomorrow, 29 May, Monday

    Time Temperature Precipitation Wind Pressure Humidity
    00:00 +15°C° 0 mm 4 mps 748 mmHg 93%
    01:00 +15°C° 0 mm 4 mps 748 mmHg 94%
    02:00 +14°C° 0 mm 4 mps 747 mmHg 94%
    03:00 +15°C° 0 mm 5 mps 747 mmHg 93%
    04:00 +15°C° 0 mm 5 mps 746 mmHg 91%
    05:00 +15°C° 0 mm 5 mps 746 mmHg 90%
    06:00 +16°C° 0 mm 6 mps 745 mmHg 83%
    07:00 +17°C° 0 mm 7 mps 745 mmHg 77%
    08:00 +20°C° 0 mm 8 mps 745 mmHg 71%
    09:00 +20°C° 0 mm 7 mps 744 mmHg 70%
    10:00 +20°C° 0 mm 7 mps 744 mmHg 70%
    11:00 +21°C° 0 mm 7 mps 743 mmHg 69%
    12:00 +21°C° 0.2 mm 7 mps 743 mmHg 69%
    13:00 +21°C° 0.2 mm 7 mps 743 mmHg 69%
    14:00 +22°C° 0.2 mm 7 mps 743 mmHg 70%
    15:00 +22°C° 0.3 mm 7 mps 743 mmHg 71%
    16:00 +22°C° 0.3 mm 6 mps 743 mmHg 73%
    17:00 +21°C° 0.3 mm 5 mps 742 mmHg 75%
    18:00 +20°C° 0.1 mm 4 mps 743 mmHg 80%
    19:00 +18°C° 0.1 mm 4 mps 743 mmHg 85%
    20:00 +17°C° 0.1 mm 3 mps 743 mmHg 91%
    21:00 +16°C° 0 mm 3 mps 743 mmHg 92%
    22:00 +15°C° 0 mm 2 mps 743 mmHg 94%
    23:00 +14°C° 0 mm 2 mps 743 mmHg 96%

    30 May, Tuesday

    Time Temperature Precipitation Wind Pressure Humidity
    00:00 +14°C° 0 mm 2 mps 743 mmHg 96%
    01:00 +14°C° 0 mm 2 mps 744 mmHg 96%
    02:00 +14°C° 0 mm 2 mps 744 mmHg 97%
    03:00 +14°C° 0 mm 2 mps 744 mmHg 97%
    04:00 +14°C° 0 mm 2 mps 744 mmHg 96%
    05:00 +14°C° 0 mm 2 mps 744 mmHg 96%
    06:00 +14°C° 0 mm 2 mps 745 mmHg 92%
    07:00 +15°C° 0 mm 2 mps 745 mmHg 88%
    08:00 +16°C° 0 mm 3 mps 745 mmHg 84%
    09:00 +16°C° 0 mm 3 mps 746 mmHg 78%
    10:00 +17°C° 0 mm 3 mps 746 mmHg 73%
    11:00 +17°C° 0 mm 3 mps 746 mmHg 67%
    12:00 +18°C° 0 mm 3 mps 746 mmHg 65%
    13:00 +18°C° 0 mm 2 mps 746 mmHg 62%
    14:00 +19°C° 0 mm 2 mps 746 mmHg 59%
    15:00 +19°C° 0 mm 2 mps 746 mmHg 60%
    16:00 +19°C° 0 mm 2 mps 746 mmHg 60%
    17:00 +20°C° 0 mm 1 mps 746 mmHg 61%
    18:00 +17°C° 0 mm 2 mps 746 mmHg 68%
    19:00 +15°C° 0 mm 2 mps 746 mmHg 75%
    20:00 +14°C° 0 mm 2 mps 745 mmHg 82%
    21:00 +13°C° 0 mm 2 mps 745 mmHg 85%
    22:00 +12°C° 0 mm 3 mps 745 mmHg 87%
    23:00 +11°C° 0 mm 3 mps 745 mmHg 90%

    31 May, Wednesday

    Time Temperature Precipitation Wind Pressure Humidity
    00:00 +11°C° 0 mm 4 mps 744 mmHg 91%
    01:00 +11°C° 0 mm 4 mps 744 mmHg 91%
    02:00 +12°C° 0 mm 4 mps 743 mmHg 92%
    03:00 +12°C° 0 mm 5 mps 743 mmHg 91%
    04:00 +13°C° 0 mm 5 mps 742 mmHg 90%
    05:00 +14°C° 0 mm 5 mps 742 mmHg 88%
    06:00 +15°C° 0.1 mm 5 mps 741 mmHg 86%
    07:00 +17°C° 0.1 mm 6 mps 741 mmHg 83%
    08:00 +19°C° 0.1 mm 6 mps 741 mmHg 81%
    09:00 +20°C° 0.1 mm 6 mps 741 mmHg 80%
    10:00 +21°C° 0.1 mm 7 mps 741 mmHg 79%
    11:00 +22°C° 0.1 mm 7 mps 741 mmHg 78%
    12:00 +22°C° 0.4 mm 7 mps 740 mmHg 75%
    13:00 +23°C° 0.4 mm 6 mps 740 mmHg 72%
    14:00 +23°C° 0.4 mm 6 mps 740 mmHg 69%
    15:00 +23°C° 0.2 mm 6 mps 740 mmHg 69%
    16:00 +23°C° 0.2 mm 6 mps 739 mmHg 69%
    17:00 +22°C° 0.2 mm 5 mps 739 mmHg 69%
    18:00 +21°C° 0.1 mm 5 mps 739 mmHg 72%
    19:00 +19°C° 0.1 mm 5 mps 739 mmHg 75%
    20:00 +17°C° 0.1 mm 5 mps 739 mmHg 78%
    21:00 +16°C° 0 mm 5 mps 739 mmHg 78%
    22:00 +15°C° 0 mm 5 mps 739 mmHg 79%
    23:00 +14°C° 0 mm 5 mps 739 mmHg 79%

    1 June, Thursday

    Time Temperature Precipitation Wind Pressure Humidity
    00:00 +12°C° 0 mm 5 mps 739 mmHg 80%
    01:00 +10°C° 0 mm 5 mps 739 mmHg 81%
    02:00 +9°C° 0 mm 5 mps 739 mmHg 82%
    03:00 +10°C° 0 mm 5 mps 738 mmHg 83%
    04:00 +10°C° 0 mm 6 mps 738 mmHg 84%
    05:00 +10°C° 0 mm 6 mps 738 mmHg 85%
    06:00 +10°C° 0.1 mm 6 mps 738 mmHg 85%
    07:00 +11°C° 0.1 mm 6 mps 738 mmHg 84%
    08:00 +11°C° 0.1 mm 7 mps 738 mmHg 84%
    09:00 +11°C° 0.1 mm 6 mps 738 mmHg 83%
    10:00 +11°C° 0.1 mm 6 mps 738 mmHg 83%
    11:00 +11°C° 0.1 mm 6 mps 738 mmHg 83%
    12:00 +12°C° 0.2 mm 7 mps 738 mmHg 82%
    13:00 +12°C° 0.2 mm 7 mps 738 mmHg 82%
    14:00 +12°C° 0.2 mm 7 mps 738 mmHg 81%
    15:00 +12°C° 0.2 mm 8 mps 737 mmHg 79%
    16:00 +11°C° 0.2 mm 9 mps 737 mmHg 77%
    17:00 +11°C° 0.2 mm 9 mps 737 mmHg 75%
    18:00 +8°C° 0.2 mm 9 mps 737 mmHg 78%
    19:00 +7°C° 0.2 mm 9 mps 737 mmHg 80%
    20:00 +5°C° 0.2 mm 9 mps 737 mmHg 83%
    21:00 +5°C° 0 mm 8 mps 738 mmHg 82%
    22:00 +4°C° 0 mm 8 mps 738 mmHg 81%
    23:00 +2°C° 0 mm 8 mps 738 mmHg 80%
    Show more